| time (UTC) | temp C | wind direction | speed KPH | gust KPH | rain 1hr cm | rain 24hr cm | rain mn cm | humidity % | barometer mb |
| 20260510174406 | 26 | 270 | 0.0 | 0.0 | 0.00 | 0.00 | 0.00 | 62 | 1018.4 |
| 20260510173902 | 25 | 270 | 3.2 | 4.8 | 0.00 | 0.00 | 0.00 | 65 | 1018.4 |
| 20260510173357 | 24 | 270 | 0.0 | 0.0 | 0.00 | 0.00 | 0.00 | 67 | 1018.8 |
| 20260510172854 | 23 | 174 | 0.0 | 0.0 | 0.00 | 0.00 | 0.00 | 69 | 1018.8 |
| 20260510172350 | 23 | 174 | 0.0 | 0.0 | 0.00 | 0.00 | 0.00 | 69 | 1018.8 |
| 20260510171846 | 24 | 174 | 0.0 | 3.2 | 0.00 | 0.00 | 0.00 | 66 | 1019.1 |
| 20260510171344 | 25 | 174 | 0.0 | 0.0 | 0.00 | 0.00 | 0.00 | 67 | 1019.1 |
| 20260510170841 | 25 | 174 | 6.4 | 6.4 | 0.00 | 0.00 | 0.00 | 64 | 1019.1 |
| 20260510170337 | 26 | 307 | 0.0 | 0.0 | 0.00 | 0.00 | 0.00 | 66 | 1019.1 |
| 20260510165832 | 25 | 307 | 0.0 | 3.2 | 0.00 | 0.00 | 0.00 | 67 | 1019.1 |
| 20260510165329 | 25 | 130 | 0.0 | 3.2 | 0.00 | 0.00 | 0.00 | 68 | 1019.1 |
| 20260510164827 | 24 | 130 | 0.0 | 4.8 | 0.00 | 0.00 | 0.00 | 71 | 1019.5 |
| 20260510164324 | 24 | 96 | 0.0 | 0.0 | 0.00 | 0.00 | 0.00 | 72 | 1019.5 |
| 20260510163823 | 23 | 327 | 0.0 | 0.0 | 0.00 | 0.00 | 0.00 | 77 | 1019.1 |
| 20260510163320 | 22 | 329 | 3.2 | 8.0 | 0.00 | 0.00 | 0.00 | 77 | 1019.5 |
| 20260510162820 | 22 | 354 | 0.0 | 0.0 | 0.00 | 0.00 | 0.00 | 78 | 1019.5 |
| 20260510162318 | 22 | 354 | 0.0 | 0.0 | 0.00 | 0.00 | 0.00 | 76 | 1019.5 |
| 20260510161813 | 21 | 354 | 0.0 | 0.0 | 0.00 | 0.00 | 0.00 | 76 | 1019.5 |
| 20260510161309 | 21 | 354 | 0.0 | 0.0 | 0.00 | 0.00 | 0.00 | 76 | 1019.5 |
| 20260510160806 | 21 | 354 | 0.0 | 0.0 | 0.00 | 0.00 | 0.00 | 77 | 1019.5 |
| 20260510160303 | 21 | 354 | 0.0 | 0.0 | 0.00 | 0.00 | 0.00 | 78 | 1019.5 |
| 20260510155803 | 21 | 354 | 0.0 | 0.0 | 0.00 | 0.00 | 0.00 | 78 | 1019.5 |
| 20260510155259 | 21 | 354 | 0.0 | 0.0 | 0.00 | 0.00 | 0.00 | 79 | 1019.5 |
| 20260510154755 | 21 | 354 | 0.0 | 0.0 | 0.00 | 0.00 | 0.00 | 78 | 1019.5 |
| 20260510154251 | 21 | 354 | 0.0 | 0.0 | 0.00 | 0.00 | 0.00 | 78 | 1019.5 |
| 20260510153746 | 21 | 354 | 0.0 | 0.0 | 0.00 | 0.00 | 0.00 | 80 | 1019.5 |
| 20260510153242 | 21 | 354 | 0.0 | 0.0 | 0.00 | 0.00 | 0.00 | 81 | 1019.5 |
| 20260510152739 | 21 | 354 | 0.0 | 0.0 | 0.00 | 0.00 | 0.00 | 82 | 1019.5 |
| 20260510152236 | 21 | 354 | 1.6 | 4.8 | 0.00 | 0.00 | 0.00 | 82 | 1019.5 |
| 20260510151732 | 20 | 354 | 0.0 | 0.0 | 0.00 | 0.00 | 0.00 | 84 | 1019.5 |
| 20260510151231 | 20 | 354 | 0.0 | 0.0 | 0.00 | 0.00 | 0.00 | 86 | 1019.5 |
| 20260510150726 | 20 | 354 | 0.0 | 0.0 | 0.00 | 0.00 | 0.00 | 85 | 1019.5 |
| 20260510150222 | 20 | 354 | 0.0 | 0.0 | 0.00 | 0.00 | 0.00 | 84 | 1019.5 |
| 20260510145718 | 20 | 354 | 0.0 | 0.0 | 0.00 | 0.00 | 0.00 | 85 | 1019.5 |
| 20260510145215 | 20 | 354 | 0.0 | 0.0 | 0.00 | 0.00 | 0.00 | 86 | 1019.5 |
| 20260510144711 | 20 | 354 | 0.0 | 3.2 | 0.00 | 0.00 | 0.00 | 89 | 1019.5 |
| 20260510144208 | 19 | 340 | 0.0 | 0.0 | 0.00 | 0.00 | 0.00 | 91 | 1019.5 |
| 20260510143702 | 19 | 340 | 0.0 | 0.0 | 0.00 | 0.00 | 0.00 | 92 | 1019.5 |
| 20260510143159 | 18 | 340 | 0.0 | 0.0 | 0.00 | 0.00 | 0.00 | 94 | 1019.8 |
| 20260510142655 | 18 | 340 | 0.0 | 0.0 | 0.00 | 0.00 | 0.00 | 94 | 1019.8 |
| 20260510142152 | 18 | 340 | 0.0 | 0.0 | 0.00 | 0.00 | 0.00 | 95 | 1019.8 |
| 20260510141649 | 18 | 340 | 0.0 | 0.0 | 0.00 | 0.00 | 0.00 | 96 | 1019.8 |
| 20260510141148 | 18 | 340 | 0.0 | 0.0 | 0.00 | 0.00 | 0.00 | 96 | 1019.8 |
| 20260510140644 | 18 | 340 | 0.0 | 0.0 | 0.00 | 0.00 | 0.00 | 96 | 1019.8 |
| 20260510140143 | 18 | 340 | 0.0 | 0.0 | 0.00 | 0.00 | 0.00 | 97 | 1019.8 |
| 20260510135638 | 18 | 340 | 0.0 | 0.0 | 0.00 | 0.00 | 0.00 | 97 | 1019.5 |
| 20260510135135 | 18 | 333 | 0.0 | 0.0 | 0.00 | 0.00 | 0.00 | 97 | 1019.5 |
| 20260510134632 | 18 | 327 | 0.0 | 0.0 | 0.00 | 0.00 | 0.00 | 97 | 1019.5 |
| 20260510134129 | 18 | 327 | 0.0 | 0.0 | 0.00 | 0.00 | 0.00 | 97 | 1019.5 |
| 20260510133625 | 18 | 327 | 0.0 | 0.0 | 0.00 | 0.00 | 0.00 | 97 | 1019.5 |
| 20260510133121 | 18 | 327 | 0.0 | 0.0 | 0.00 | 0.00 | 0.00 | 96 | 1019.5 |
| 20260510132618 | 18 | 327 | 0.0 | 0.0 | 0.00 | 0.00 | 0.00 | 97 | 1019.5 |
| 20260510132115 | 18 | 327 | 0.0 | 0.0 | 0.00 | 0.00 | 0.00 | 97 | 1019.5 |
| 20260510131612 | 18 | 327 | 0.0 | 0.0 | 0.00 | 0.00 | 0.00 | 96 | 1019.5 |
| 20260510131109 | 18 | 327 | 0.0 | 0.0 | 0.00 | 0.00 | 0.00 | 97 | 1019.5 |
| 20260510130606 | 18 | 327 | 0.0 | 0.0 | 0.00 | 0.00 | 0.00 | 97 | 1019.5 |
| 20260510130104 | 18 | 327 | 0.0 | 0.0 | 0.00 | 0.00 | 0.00 | 96 | 1019.1 |
| 20260510125559 | 18 | 327 | 0.0 | 0.0 | 0.00 | 0.00 | 0.00 | 97 | 1019.1 |
| 20260510125056 | 18 | 327 | 0.0 | 0.0 | 0.00 | 0.00 | 0.00 | 97 | 1019.1 |
| 20260510124552 | 17 | 327 | 0.0 | 0.0 | 0.00 | 0.00 | 0.00 | 98 | 1019.1 |
| 20260510124050 | 17 | 327 | 0.0 | 0.0 | 0.00 | 0.00 | 0.00 | 98 | 1019.1 |
| 20260510123545 | 17 | 9 | 0.0 | 0.0 | 0.00 | 0.00 | 0.00 | 98 | 1019.1 |
| 20260510123041 | 17 | 9 | 0.0 | 0.0 | 0.00 | 0.00 | 0.00 | 98 | 1018.8 |
| 20260510122537 | 17 | 9 | 0.0 | 0.0 | 0.00 | 0.00 | 0.00 | 99 | 1018.8 |
| 20260510122033 | 17 | 9 | 0.0 | 0.0 | 0.00 | 0.00 | 0.00 | 99 | 1018.8 |
| 20260510121531 | 17 | 9 | 0.0 | 0.0 | 0.00 | 0.00 | 0.00 | 99 | 1018.8 |
| 20260510121027 | 17 | 9 | 0.0 | 0.0 | 0.00 | 0.00 | 0.00 | 99 | 1018.8 |
| 20260510120525 | 17 | 9 | 0.0 | 0.0 | 0.00 | 0.00 | 0.00 | 99 | 1018.4 |
| 20260510120021 | 17 | 9 | 0.0 | 0.0 | 0.00 | 0.00 | 0.00 | 100 | 1018.4 |
| 20260510115518 | 17 | 9 | 0.0 | 0.0 | 0.00 | 0.00 | 0.00 | 100 | 1018.4 |
| 20260510115014 | 17 | 9 | 0.0 | 0.0 | 0.00 | 0.00 | 0.00 | 100 | 1018.1 |
| 20260510114510 | 17 | 9 | 0.0 | 0.0 | 0.00 | 0.00 | 0.00 | 100 | 1018.1 |
| 20260510114007 | 17 | 9 | 0.0 | 0.0 | 0.00 | 0.00 | 0.00 | 100 | 1017.8 |
| 20260510113502 | 17 | 9 | 0.0 | 0.0 | 0.00 | 0.00 | 0.00 | 100 | 1018.1 |
| 20260510113000 | 17 | 9 | 0.0 | 0.0 | 0.00 | 0.00 | 0.00 | 100 | 1017.8 |
| 20260510112456 | 17 | 9 | 0.0 | 0.0 | 0.00 | 0.00 | 0.00 | 100 | 1017.8 |
| 20260510111953 | 17 | 9 | 0.0 | 0.0 | 0.00 | 0.00 | 0.00 | 100 | 1017.8 |
| 20260510111449 | 17 | 9 | 0.0 | 0.0 | 0.00 | 0.00 | 0.00 | 100 | 1017.4 |
| 20260510110945 | 17 | 9 | 0.0 | 0.0 | 0.00 | 0.00 | 0.00 | 100 | 1017.4 |
| 20260510110442 | 17 | 9 | 0.0 | 0.0 | 0.00 | 0.00 | 0.00 | 100 | 1017.4 |
| 20260510105937 | 17 | 9 | 0.0 | 0.0 | 0.00 | 0.00 | 0.00 | 100 | 1017.1 |
| 20260510105432 | 17 | 9 | 0.0 | 0.0 | 0.00 | 0.00 | 0.00 | 100 | 1017.1 |
| 20260510104928 | 17 | 9 | 0.0 | 0.0 | 0.00 | 0.00 | 0.00 | 100 | 1017.1 |
| 20260510104425 | 17 | 9 | 0.0 | 0.0 | 0.00 | 0.00 | 0.00 | 100 | 1017.1 |
| 20260510103922 | 17 | 9 | 0.0 | 0.0 | 0.00 | 0.00 | 0.00 | 100 | 1017.1 |
| 20260510103420 | 17 | 9 | 0.0 | 0.0 | 0.00 | 0.00 | 0.00 | 100 | 1016.8 |
| 20260510102914 | 17 | 9 | 0.0 | 0.0 | 0.00 | 0.00 | 0.00 | 100 | 1016.8 |
| 20260510102410 | 17 | 9 | 0.0 | 0.0 | 0.00 | 0.00 | 0.00 | 100 | 1016.8 |
| 20260510101908 | 17 | 9 | 0.0 | 0.0 | 0.00 | 0.00 | 0.00 | 100 | 1016.8 |
| 20260510101406 | 17 | 9 | 0.0 | 0.0 | 0.00 | 0.00 | 0.00 | 100 | 1016.8 |
| 20260510100902 | 17 | 9 | 0.0 | 0.0 | 0.00 | 0.00 | 0.00 | 100 | 1016.8 |
| 20260510100400 | 17 | 9 | 0.0 | 0.0 | 0.00 | 0.00 | 0.00 | 100 | 1016.8 |
| 20260510095856 | 17 | 9 | 0.0 | 0.0 | 0.00 | 0.00 | 0.00 | 100 | 1016.8 |
| 20260510095350 | 17 | 9 | 0.0 | 0.0 | 0.00 | 0.00 | 0.00 | 100 | 1016.4 |
| 20260510094850 | 17 | 9 | 0.0 | 0.0 | 0.00 | 0.00 | 0.00 | 100 | 1016.4 |
| 20260510094345 | 17 | 9 | 0.0 | 0.0 | 0.00 | 0.00 | 0.00 | 100 | 1016.4 |
| 20260510093842 | 17 | 9 | 0.0 | 0.0 | 0.00 | 0.00 | 0.00 | 100 | 1016.4 |
| 20260510093338 | 17 | 9 | 0.0 | 0.0 | 0.00 | 0.00 | 0.00 | 100 | 1016.4 |
| 20260510092834 | 16 | 9 | 0.0 | 0.0 | 0.00 | 0.00 | 0.00 | 100 | 1016.1 |
| 20260510092330 | 16 | 9 | 0.0 | 0.0 | 0.00 | 0.00 | 0.00 | 100 | 1016.1 |
| 20260510091826 | 16 | 9 | 0.0 | 0.0 | 0.00 | 0.00 | 0.00 | 100 | 1016.1 |
| 20260510091324 | 16 | 9 | 0.0 | 0.0 | 0.00 | 0.00 | 0.00 | 100 | 1016.1 |
| 20260510090820 | 16 | 9 | 0.0 | 0.0 | 0.00 | 0.00 | 0.00 | 100 | 1016.1 |
| 20260510090317 | 16 | 9 | 0.0 | 0.0 | 0.00 | 0.00 | 0.00 | 100 | 1016.1 |
| 20260510085813 | 16 | 9 | 0.0 | 0.0 | 0.00 | 0.00 | 0.00 | 100 | 1016.1 |
| 20260510085313 | 16 | 9 | 0.0 | 0.0 | 0.00 | 0.00 | 0.00 | 100 | 1015.6 |
| 20260510084808 | 16 | 9 | 0.0 | 0.0 | 0.00 | 0.00 | 0.00 | 100 | 1015.6 |
| 20260510084306 | 16 | 9 | 0.0 | 0.0 | 0.00 | 0.00 | 0.00 | 100 | 1015.6 |
| 20260510083803 | 16 | 9 | 0.0 | 0.0 | 0.00 | 0.00 | 0.00 | 100 | 1015.6 |
| 20260510083259 | 16 | 9 | 0.0 | 0.0 | 0.00 | 0.00 | 0.00 | 100 | 1015.6 |
| 20260510082755 | 16 | 9 | 0.0 | 0.0 | 0.00 | 0.00 | 0.00 | 100 | 1015.3 |
| 20260510082252 | 16 | 9 | 0.0 | 0.0 | 0.00 | 0.00 | 0.00 | 100 | 1015.6 |
| 20260510081750 | 16 | 9 | 0.0 | 0.0 | 0.00 | 0.00 | 0.00 | 100 | 1015.6 |
| 20260510081247 | 16 | 9 | 0.0 | 0.0 | 0.00 | 0.00 | 0.00 | 100 | 1015.6 |
| 20260510080743 | 16 | 9 | 0.0 | 0.0 | 0.00 | 0.00 | 0.00 | 100 | 1015.6 |
| 20260510080238 | 16 | 9 | 0.0 | 0.0 | 0.00 | 0.00 | 0.00 | 100 | 1015.6 |
| 20260510075735 | 16 | 9 | 0.0 | 0.0 | 0.00 | 0.00 | 0.00 | 100 | 1015.3 |
| 20260510075233 | 16 | 9 | 0.0 | 0.0 | 0.00 | 0.00 | 0.00 | 100 | 1015.6 |
| 20260510074730 | 16 | 9 | 0.0 | 0.0 | 0.00 | 0.00 | 0.00 | 100 | 1015.3 |
| 20260510074226 | 16 | 9 | 0.0 | 0.0 | 0.00 | 0.00 | 0.00 | 100 | 1015.3 |
| 20260510073722 | 16 | 9 | 0.0 | 0.0 | 0.00 | 0.00 | 0.00 | 100 | 1015.3 |
| 20260510073218 | 16 | 9 | 0.0 | 0.0 | 0.00 | 0.00 | 0.00 | 100 | 1015.3 |
| 20260510072714 | 16 | 9 | 0.0 | 0.0 | 0.00 | 0.00 | 0.00 | 100 | 1015.3 |
| 20260510072211 | 16 | 9 | 0.0 | 0.0 | 0.00 | 0.00 | 0.00 | 100 | 1015.6 |
| 20260510071708 | 16 | 9 | 0.0 | 0.0 | 0.00 | 0.00 | 0.00 | 100 | 1015.3 |
| 20260510071204 | 16 | 9 | 0.0 | 0.0 | 0.00 | 0.00 | 0.00 | 100 | 1015.3 |
| 20260510070702 | 16 | 9 | 0.0 | 0.0 | 0.00 | 0.00 | 0.00 | 100 | 1015.6 |
| 20260510070159 | 16 | 9 | 0.0 | 0.0 | 0.00 | 0.00 | 0.00 | 100 | 1015.6 |
| 20260510065654 | 16 | 9 | 0.0 | 0.0 | 0.00 | 0.00 | 0.00 | 100 | 1015.6 |
| 20260510065150 | 16 | 9 | 0.0 | 0.0 | 0.00 | 0.00 | 0.00 | 100 | 1015.6 |
| 20260510064647 | 16 | 9 | 0.0 | 0.0 | 0.00 | 0.00 | 0.00 | 100 | 1015.6 |
| 20260510064144 | 16 | 9 | 0.0 | 0.0 | 0.00 | 0.00 | 0.00 | 100 | 1016.1 |
| 20260510063642 | 16 | 9 | 0.0 | 0.0 | 0.00 | 0.00 | 0.00 | 100 | 1015.6 |
| 20260510063138 | 16 | 9 | 0.0 | 0.0 | 0.00 | 0.00 | 0.00 | 100 | 1015.6 |
| 20260510062634 | 16 | 9 | 0.0 | 0.0 | 0.00 | 0.00 | 0.00 | 100 | 1015.6 |
| 20260510062130 | 16 | 9 | 0.0 | 0.0 | 0.00 | 0.00 | 0.00 | 100 | 1015.6 |
| 20260510061625 | 16 | 9 | 0.0 | 0.0 | 0.00 | 0.00 | 0.00 | 100 | 1015.6 |
| 20260510061124 | 16 | 9 | 0.0 | 0.0 | 0.00 | 0.00 | 0.00 | 100 | 1015.6 |
| 20260510060619 | 16 | 9 | 0.0 | 0.0 | 0.00 | 0.00 | 0.00 | 100 | 1016.1 |
| 20260510060116 | 16 | 9 | 0.0 | 0.0 | 0.00 | 0.00 | 0.00 | 100 | 1016.1 |
| 20260510055612 | 16 | 9 | 0.0 | 0.0 | 0.00 | 0.00 | 0.00 | 100 | 1015.6 |
| 20260510055110 | 16 | 9 | 0.0 | 0.0 | 0.00 | 0.00 | 0.00 | 100 | 1016.1 |
| 20260510054606 | 16 | 9 | 0.0 | 0.0 | 0.00 | 0.00 | 0.00 | 100 | 1016.1 |
| 20260510054101 | 16 | 9 | 0.0 | 0.0 | 0.00 | 0.00 | 0.00 | 100 | 1016.1 |
| 20260510053601 | 16 | 9 | 0.0 | 0.0 | 0.00 | 0.00 | 0.00 | 100 | 1016.1 |
| 20260510053058 | 16 | 9 | 0.0 | 0.0 | 0.00 | 0.00 | 0.00 | 100 | 1016.1 |
| 20260510052553 | 16 | 9 | 0.0 | 0.0 | 0.00 | 0.00 | 0.00 | 100 | 1016.1 |
| 20260510052050 | 16 | 9 | 0.0 | 0.0 | 0.00 | 0.00 | 0.00 | 100 | 1016.1 |
| 20260510051545 | 16 | 9 | 0.0 | 0.0 | 0.00 | 0.00 | 0.00 | 100 | 1016.1 |
| 20260510051043 | 16 | 9 | 0.0 | 0.0 | 0.00 | 0.00 | 0.00 | 100 | 1016.4 |
| 20260510050540 | 16 | 9 | 0.0 | 0.0 | 0.00 | 0.00 | 0.00 | 100 | 1016.1 |
| 20260510050037 | 16 | 9 | 0.0 | 0.0 | 0.00 | 0.00 | 0.00 | 100 | 1016.1 |
| 20260510045534 | 16 | 9 | 0.0 | 0.0 | 0.00 | 0.00 | 0.00 | 100 | 1016.1 |
| 20260510045030 | 16 | 9 | 0.0 | 0.0 | 0.00 | 0.00 | 0.00 | 100 | 1016.1 |
| 20260510044527 | 16 | 9 | 0.0 | 0.0 | 0.00 | 0.00 | 0.00 | 100 | 1016.1 |
| 20260510044025 | 16 | 9 | 0.0 | 0.0 | 0.00 | 0.00 | 0.00 | 100 | 1016.1 |
| 20260510043520 | 16 | 9 | 0.0 | 0.0 | 0.00 | 0.00 | 0.00 | 100 | 1016.1 |
| 20260510043015 | 16 | 9 | 0.0 | 0.0 | 0.00 | 0.00 | 0.00 | 100 | 1016.1 |
| 20260510042509 | 16 | 9 | 0.0 | 0.0 | 0.00 | 0.00 | 0.00 | 100 | 1016.1 |
| 20260510042005 | 16 | 9 | 0.0 | 0.0 | 0.00 | 0.00 | 0.00 | 100 | 1016.1 |
| 20260510041502 | 16 | 9 | 0.0 | 0.0 | 0.00 | 0.00 | 0.00 | 100 | 1016.4 |
| 20260510041000 | 16 | 9 | 0.0 | 0.0 | 0.00 | 0.00 | 0.00 | 100 | 1016.1 |
| 20260510040456 | 16 | 9 | 0.0 | 0.0 | 0.00 | 0.00 | 0.00 | 99 | 1016.1 |
| 20260510035952 | 16 | 9 | 0.0 | 0.0 | 0.00 | 0.05 | 0.05 | 99 | 1016.4 |
| 20260510035449 | 16 | 9 | 0.0 | 0.0 | 0.00 | 0.05 | 0.05 | 99 | 1016.1 |
| 20260510034948 | 16 | 9 | 0.0 | 0.0 | 0.00 | 0.05 | 0.05 | 99 | 1016.1 |
| 20260510034447 | 16 | 9 | 0.0 | 0.0 | 0.00 | 0.05 | 0.05 | 99 | 1016.1 |
| 20260510033943 | 16 | 9 | 0.0 | 0.0 | 0.00 | 0.05 | 0.05 | 99 | 1016.1 |
| 20260510033439 | 17 | 9 | 0.0 | 0.0 | 0.00 | 0.05 | 0.05 | 99 | 1016.4 |
| 20260510032937 | 17 | 9 | 0.0 | 0.0 | 0.00 | 0.05 | 0.05 | 99 | 1016.4 |
| 20260510032433 | 17 | 9 | 0.0 | 0.0 | 0.00 | 0.05 | 0.05 | 99 | 1016.4 |
| 20260510031928 | 17 | 9 | 0.0 | 0.0 | 0.00 | 0.05 | 0.05 | 99 | 1016.4 |
| 20260510031424 | 17 | 9 | 0.0 | 0.0 | 0.00 | 0.05 | 0.05 | 99 | 1016.4 |
| 20260510030919 | 17 | 9 | 0.0 | 0.0 | 0.00 | 0.05 | 0.05 | 99 | 1016.4 |
| 20260510030415 | 17 | 9 | 0.0 | 0.0 | 0.00 | 0.05 | 0.05 | 98 | 1016.4 |
| 20260510025913 | 17 | 9 | 0.0 | 0.0 | 0.00 | 0.05 | 0.05 | 98 | 1016.1 |
| 20260510025410 | 17 | 9 | 0.0 | 0.0 | 0.00 | 0.05 | 0.05 | 98 | 1016.1 |
| 20260510024908 | 17 | 9 | 0.0 | 0.0 | 0.00 | 0.05 | 0.05 | 98 | 1016.1 |
| 20260510024404 | 18 | 9 | 0.0 | 0.0 | 0.00 | 0.05 | 0.05 | 98 | 1016.1 |
| 20260510023900 | 18 | 9 | 0.0 | 0.0 | 0.00 | 0.05 | 0.05 | 98 | 1016.1 |
| 20260510023356 | 18 | 9 | 0.0 | 0.0 | 0.00 | 0.05 | 0.05 | 97 | 1015.6 |
| 20260510022854 | 18 | 9 | 0.0 | 0.0 | 0.00 | 0.05 | 0.05 | 97 | 1015.6 |
| 20260510022353 | 18 | 9 | 0.0 | 0.0 | 0.00 | 0.05 | 0.05 | 97 | 1015.6 |
| 20260510021851 | 18 | 9 | 0.0 | 0.0 | 0.00 | 0.05 | 0.05 | 97 | 1015.6 |
| 20260510021350 | 18 | 9 | 0.0 | 0.0 | 0.00 | 0.05 | 0.05 | 97 | 1015.6 |
| 20260510020846 | 18 | 9 | 0.0 | 0.0 | 0.00 | 0.05 | 0.05 | 97 | 1015.6 |
| 20260510020346 | 18 | 9 | 0.0 | 0.0 | 0.00 | 0.05 | 0.05 | 96 | 1015.6 |
| 20260510015842 | 18 | 9 | 0.0 | 0.0 | 0.00 | 0.05 | 0.05 | 96 | 1015.3 |
| 20260510015338 | 18 | 9 | 0.0 | 0.0 | 0.00 | 0.05 | 0.05 | 96 | 1015.3 |
| 20260510014833 | 18 | 9 | 0.0 | 0.0 | 0.00 | 0.05 | 0.05 | 96 | 1015.3 |
| 20260510014331 | 18 | 9 | 0.0 | 0.0 | 0.00 | 0.05 | 0.05 | 96 | 1015.0 |
| 20260510013827 | 18 | 9 | 0.0 | 0.0 | 0.00 | 0.05 | 0.05 | 95 | 1015.0 |
| 20260510013323 | 18 | 9 | 0.0 | 0.0 | 0.00 | 0.05 | 0.05 | 95 | 1015.0 |
| 20260510012818 | 18 | 9 | 0.0 | 0.0 | 0.00 | 0.05 | 0.05 | 95 | 1015.0 |
| 20260510012317 | 18 | 9 | 0.0 | 0.0 | 0.00 | 0.05 | 0.05 | 95 | 1014.6 |
| 20260510011813 | 18 | 9 | 0.0 | 0.0 | 0.00 | 0.05 | 0.05 | 94 | 1014.6 |
| 20260510011308 | 18 | 9 | 0.0 | 0.0 | 0.00 | 0.05 | 0.05 | 94 | 1014.6 |
| 20260510010805 | 19 | 9 | 0.0 | 0.0 | 0.00 | 0.05 | 0.05 | 94 | 1014.6 |
| 20260510010302 | 19 | 9 | 0.0 | 0.0 | 0.00 | 0.05 | 0.05 | 93 | 1014.3 |
| 20260510005759 | 19 | 9 | 0.0 | 0.0 | 0.00 | 0.05 | 0.05 | 93 | 1014.3 |
| 20260510005255 | 19 | 9 | 0.0 | 0.0 | 0.00 | 0.05 | 0.05 | 92 | 1014.3 |
| 20260510004753 | 19 | 9 | 0.0 | 0.0 | 0.00 | 0.05 | 0.05 | 92 | 1014.3 |
| 20260510004250 | 19 | 9 | 0.0 | 0.0 | 0.00 | 0.05 | 0.05 | 92 | 1013.9 |
| 20260510003748 | 20 | 9 | 0.0 | 0.0 | 0.00 | 0.05 | 0.05 | 91 | 1013.9 |
| 20260510003244 | 20 | 9 | 0.0 | 0.0 | 0.00 | 0.05 | 0.05 | 90 | 1014.3 |
| 20260510002743 | 20 | 9 | 0.0 | 0.0 | 0.00 | 0.05 | 0.05 | 89 | 1013.9 |
| 20260510002241 | 20 | 9 | 0.0 | 0.0 | 0.00 | 0.05 | 0.05 | 89 | 1013.9 |
| 20260510001737 | 20 | 9 | 0.0 | 0.0 | 0.00 | 0.05 | 0.05 | 89 | 1013.9 |
| 20260510001236 | 20 | 9 | 0.0 | 0.0 | 0.00 | 0.05 | 0.05 | 88 | 1013.9 |
| 20260510000731 | 20 | 9 | 0.0 | 0.0 | 0.00 | 0.05 | 0.05 | 88 | 1013.9 |
| 20260510000229 | 20 | 9 | 0.0 | 0.0 | 0.00 | 0.05 | 0.05 | 87 | 1013.9 |
| 20260509235725 | 20 | 9 | 0.0 | 0.0 | 0.00 | 0.05 | 0.05 | 87 | 1013.9 |
| 20260509235222 | 20 | 9 | 0.0 | 0.0 | 0.00 | 0.05 | 0.05 | 88 | 1013.6 |
| 20260509234718 | 20 | 9 | 0.0 | 0.0 | 0.00 | 0.05 | 0.05 | 88 | 1013.6 |
| 20260509234215 | 21 | 9 | 0.0 | 0.0 | 0.00 | 0.05 | 0.05 | 87 | 1013.3 |
| 20260509233713 | 21 | 9 | 0.0 | 0.0 | 0.00 | 0.05 | 0.05 | 86 | 1013.3 |
| 20260509233210 | 21 | 9 | 0.0 | 0.0 | 0.00 | 0.05 | 0.05 | 86 | 1013.3 |
| 20260509232707 | 21 | 9 | 0.0 | 0.0 | 0.00 | 0.05 | 0.05 | 85 | 1013.3 |
| 20260509232204 | 21 | 9 | 0.0 | 0.0 | 0.00 | 0.05 | 0.05 | 85 | 1013.3 |
| 20260509231700 | 21 | 9 | 0.0 | 0.0 | 0.00 | 0.05 | 0.05 | 84 | 1013.3 |
| 20260509231158 | 21 | 9 | 0.0 | 0.0 | 0.00 | 0.05 | 0.05 | 84 | 1013.3 |
| 20260509230654 | 21 | 9 | 0.0 | 0.0 | 0.00 | 0.05 | 0.05 | 83 | 1013.3 |
| 20260509230151 | 22 | 9 | 0.0 | 0.0 | 0.00 | 0.05 | 0.05 | 82 | 1013.3 |
| 20260509225647 | 22 | 9 | 0.0 | 0.0 | 0.00 | 0.05 | 0.05 | 81 | 1013.3 |
| 20260509225143 | 22 | 9 | 0.0 | 0.0 | 0.00 | 0.05 | 0.05 | 80 | 1012.9 |
| 20260509224638 | 22 | 9 | 0.0 | 0.0 | 0.00 | 0.05 | 0.05 | 78 | 1012.9 |
| 20260509224135 | 22 | 9 | 0.0 | 0.0 | 0.00 | 0.05 | 0.05 | 78 | 1012.9 |
| 20260509223632 | 22 | 9 | 0.0 | 0.0 | 0.00 | 0.05 | 0.05 | 76 | 1012.9 |
| 20260509223130 | 22 | 9 | 0.0 | 0.0 | 0.00 | 0.05 | 0.05 | 76 | 1012.9 |
| 20260509222626 | 22 | 9 | 0.0 | 0.0 | 0.00 | 0.05 | 0.05 | 76 | 1012.9 |
| 20260509222122 | 22 | 9 | 0.0 | 0.0 | 0.00 | 0.05 | 0.05 | 76 | 1012.9 |
| 20260509221618 | 22 | 9 | 0.0 | 0.0 | 0.00 | 0.05 | 0.05 | 76 | 1012.6 |
| 20260509221114 | 23 | 9 | 0.0 | 0.0 | 0.00 | 0.05 | 0.05 | 75 | 1012.6 |
| 20260509220610 | 23 | 9 | 0.0 | 0.0 | 0.00 | 0.05 | 0.05 | 73 | 1012.6 |
| 20260509220107 | 23 | 9 | 0.0 | 0.0 | 0.00 | 0.05 | 0.05 | 72 | 1012.6 |
| 20260509215602 | 23 | 9 | 0.0 | 0.0 | 0.00 | 0.05 | 0.05 | 74 | 1012.6 |
| 20260509215059 | 23 | 9 | 0.0 | 0.0 | 0.00 | 0.05 | 0.05 | 74 | 1012.6 |
| 20260509214556 | 23 | 9 | 0.0 | 0.0 | 0.00 | 0.05 | 0.05 | 72 | 1012.3 |
| 20260509214053 | 23 | 9 | 0.0 | 0.0 | 0.00 | 0.05 | 0.05 | 70 | 1012.6 |
| 20260509213549 | 23 | 9 | 0.0 | 0.0 | 0.00 | 0.05 | 0.05 | 69 | 1012.3 |
| 20260509213046 | 23 | 9 | 0.0 | 0.0 | 0.00 | 0.05 | 0.05 | 70 | 1012.6 |
| 20260509212543 | 23 | 9 | 0.0 | 0.0 | 0.00 | 0.05 | 0.05 | 66 | 1012.3 |
| 20260509212040 | 23 | 9 | 0.0 | 0.0 | 0.00 | 0.05 | 0.05 | 65 | 1012.3 |
| 20260509211536 | 23 | 9 | 0.0 | 0.0 | 0.00 | 0.05 | 0.05 | 64 | 1012.3 |
| 20260509211033 | 24 | 9 | 0.0 | 3.2 | 0.00 | 0.05 | 0.05 | 63 | 1012.3 |
| 20260509210530 | 24 | 136 | 0.0 | 0.0 | 0.00 | 0.05 | 0.05 | 62 | 1012.3 |
| 20260509210026 | 25 | 136 | 3.2 | 8.0 | 0.00 | 0.05 | 0.05 | 62 | 1012.3 |
| 20260509205520 | 25 | 198 | 0.0 | 0.0 | 0.00 | 0.05 | 0.05 | 64 | 1012.3 |
| 20260509205016 | 24 | 198 | 0.0 | 0.0 | 0.00 | 0.05 | 0.05 | 67 | 1012.3 |
| 20260509204512 | 24 | 198 | 0.0 | 0.0 | 0.00 | 0.05 | 0.05 | 67 | 1012.3 |
| 20260509204009 | 24 | 198 | 0.0 | 0.0 | 0.00 | 0.05 | 0.05 | 65 | 1012.3 |
| 20260509203504 | 24 | 198 | 0.0 | 0.0 | 0.00 | 0.05 | 0.05 | 64 | 1012.3 |
| 20260509203003 | 25 | 198 | 0.0 | 0.0 | 0.00 | 0.05 | 0.05 | 64 | 1012.6 |
| 20260509202458 | 25 | 198 | 0.0 | 0.0 | 0.00 | 0.05 | 0.05 | 60 | 1012.6 |
| 20260509201959 | 25 | 198 | 0.0 | 0.0 | 0.00 | 0.05 | 0.05 | 60 | 1012.6 |
| 20260509201454 | 24 | 198 | 0.0 | 0.0 | 0.00 | 0.05 | 0.05 | 62 | 1012.6 |
| 20260509200951 | 24 | 198 | 0.0 | 0.0 | 0.00 | 0.05 | 0.05 | 64 | 1012.3 |
| 20260509200446 | 25 | 198 | 1.6 | 3.2 | 0.00 | 0.05 | 0.05 | 63 | 1012.6 |
| 20260509195943 | 25 | 198 | 0.0 | 0.0 | 0.00 | 0.05 | 0.05 | 64 | 1012.3 |
| 20260509195439 | 25 | 198 | 0.0 | 0.0 | 0.00 | 0.05 | 0.05 | 64 | 1012.3 |
| 20260509194938 | 25 | 198 | 0.0 | 0.0 | 0.00 | 0.05 | 0.05 | 61 | 1012.6 |
| 20260509194434 | 25 | 198 | 0.0 | 0.0 | 0.00 | 0.05 | 0.05 | 61 | 1012.6 |
| 20260509193931 | 25 | 198 | 0.0 | 0.0 | 0.00 | 0.05 | 0.05 | 61 | 1012.6 |
| 20260509193430 | 25 | 198 | 0.0 | 0.0 | 0.00 | 0.05 | 0.05 | 59 | 1012.6 |
| 20260509192927 | 25 | 198 | 0.0 | 0.0 | 0.00 | 0.05 | 0.05 | 60 | 1012.9 |
| 20260509192424 | 25 | 198 | 0.0 | 0.0 | 0.00 | 0.05 | 0.05 | 64 | 1012.6 |
| 20260509191918 | 25 | 198 | 0.0 | 0.0 | 0.00 | 0.05 | 0.05 | 61 | 1012.9 |
| 20260509191414 | 25 | 198 | 1.6 | 3.2 | 0.00 | 0.05 | 0.05 | 61 | 1012.9 |
| 20260509190911 | 25 | 198 | 0.0 | 0.0 | 0.00 | 0.05 | 0.05 | 62 | 1012.9 |
| 20260509190408 | 25 | 198 | 3.2 | 4.8 | 0.00 | 0.05 | 0.05 | 62 | 1012.9 |
| 20260509185906 | 25 | 230 | 0.0 | 0.0 | 0.00 | 0.05 | 0.05 | 63 | 1012.9 |
| 20260509185402 | 24 | 248 | 0.0 | 3.2 | 0.00 | 0.05 | 0.05 | 62 | 1012.9 |
| 20260509184859 | 25 | 249 | 0.0 | 0.0 | 0.00 | 0.05 | 0.05 | 64 | 1012.9 |
| 20260509184355 | 23 | 249 | 0.0 | 0.0 | 0.00 | 0.05 | 0.05 | 66 | 1012.9 |
| 20260509183853 | 23 | 249 | 0.0 | 0.0 | 0.00 | 0.05 | 0.05 | 64 | 1012.9 |
| 20260509183348 | 24 | 93 | 0.0 | 0.0 | 0.00 | 0.05 | 0.05 | 66 | 1013.3 |
| 20260509182844 | 23 | 143 | 0.0 | 0.0 | 0.00 | 0.05 | 0.05 | 67 | 1013.3 |
| 20260509182341 | 23 | 143 | 0.0 | 0.0 | 0.00 | 0.05 | 0.05 | 69 | 1013.6 |
| 20260509181838 | 22 | 143 | 0.0 | 0.0 | 0.00 | 0.05 | 0.05 | 69 | 1013.6 |
| 20260509181335 | 23 | 143 | 0.0 | 3.2 | 0.00 | 0.05 | 0.05 | 69 | 1013.9 |
| 20260509180833 | 23 | 143 | 3.2 | 4.8 | 0.00 | 0.05 | 0.05 | 68 | 1013.9 |
| 20260509180329 | 23 | 143 | 0.0 | 3.2 | 0.00 | 0.05 | 0.05 | 71 | 1013.9 |
| 20260509175826 | 22 | 114 | 0.0 | 0.0 | 0.00 | 0.05 | 0.05 | 73 | 1013.9 |
| 20260509175322 | 22 | 114 | 0.0 | 0.0 | 0.00 | 0.05 | 0.05 | 72 | 1013.9 |
| 20260509174818 | 22 | 114 | 0.0 | 0.0 | 0.00 | 0.05 | 0.05 | 71 | 1014.3 |